Mojave, CA

1:50 AM PDT on October 23, 2019 (GMT -0700)
Mojave

Weather History for KMHV - May, 2019

Change the Weather History Date:

Thursday, May 2, 2019

  Actual Average Record
Temperature  
Mean Temperature 64 °F -  
Max Temperature 78 °F 77 °F 94 °F (1966)
Min Temperature 50 °F 50 °F 37 °F (1988)
Degree Days  
Heating Degree Days 1    
Growing Degree Days 14 (Base 50)    
Moisture  
Dew Point 33 °F    
Average Humidity 32    
Maximum Humidity 54    
Minimum Humidity 15    
Precipitation  
Precipitation 0.00 in - - ()
Sea Level Pressure  
Sea Level Pressure 29.97 in    
Wind  
Wind Speed 13 mph (WNW)    
Max Wind Speed 24 mph    
Max Gust Speed 34 mph    
Visibility 10 miles    
Events      
Averages and records for this station are not official NWS values.
T = Trace of Precipitation, MM = Missing Value Source: NWS Daily Summary

Daily Weather History Graph

Daily Weather History Graph

Search for Another Location

Airport or City:

Astronomy

May. 02, 2019 Rise Set
Actual Time 6:00 AM PDT 7:38 PM PDT
Civil Twilight 5:33 AM PDT 8:06 PM PDT
Nautical Twilight 5:01 AM PDT 8:38 PM PDT
Astronomical Twilight 4:26 AM PDT 9:13 PM PDT
Moon 5:06 AM PDT (5/2) 5:38 PM PDT (5/2)
Length of Visible Light 14h 32m
Length of Day
13h 38m
Waning Crescent, 5% of the Moon is Illuminated
May 2
Waning Crescent
May 4
New
May 11
First Quarter
May 18
Full
May 26
Last Quarter

Hourly Weather History & Observations

Time (PDT) Temp. Dew Point Humidity Pressure Visibility Wind Dir Wind Speed Gust Speed Precip Events Conditions
12:00 AM 59.0 °F 41.0 °F 51% 30.01 in 10.0 mi WNW 24.2 mph 34.5 mph N/A   Clear
12:20 AM 59.0 °F 39.2 °F 48% 30.01 in 10.0 mi WNW 24.2 mph 33.4 mph N/A   Partly Cloudy
12:40 AM 59.0 °F 39.2 °F 48% 30.00 in 10.0 mi WNW 24.2 mph 32.2 mph N/A   Partly Cloudy
1:00 AM 59.0 °F 39.2 °F 48% 30.01 in 10.0 mi West 21.9 mph 27.6 mph N/A   Scattered Clouds
1:20 AM 59.0 °F 37.4 °F 45% 30.00 in 10.0 mi WNW 13.8 mph 27.6 mph N/A   Mostly Cloudy
1:40 AM 59.0 °F 37.4 °F 45% 30.00 in 10.0 mi WNW 19.6 mph 25.3 mph N/A   Scattered Clouds
2:00 AM 57.2 °F 37.4 °F 48% 30.00 in 10.0 mi NW 12.7 mph - N/A   Scattered Clouds
2:20 AM 57.2 °F 37.4 °F 48% 30.00 in 10.0 mi NW 12.7 mph - N/A   Scattered Clouds
2:40 AM 57.2 °F 35.6 °F 44% 30.00 in 10.0 mi NW 15.0 mph 20.7 mph N/A   Partly Cloudy
3:00 AM 59.0 °F 33.8 °F 39% 29.99 in 10.0 mi WNW 20.7 mph 27.6 mph N/A   Partly Cloudy
3:20 AM 59.0 °F 32.0 °F 36% 29.98 in 10.0 mi NW 17.3 mph 26.5 mph N/A   Partly Cloudy
3:40 AM 57.2 °F 33.8 °F 41% 29.98 in 10.0 mi NW 17.3 mph 23.0 mph N/A   Clear
4:20 AM 55.4 °F 33.8 °F 44% 29.99 in 10.0 mi NNW 5.8 mph - N/A   Partly Cloudy
4:40 AM 55.4 °F 35.6 °F 47% 29.99 in 10.0 mi Calm Calm - N/A   Partly Cloudy
5:00 AM 55.4 °F 33.8 °F 44% 29.99 in 10.0 mi WNW 8.1 mph - N/A   Partly Cloudy
5:20 AM 53.6 °F 35.6 °F 51% 29.99 in 10.0 mi NW 9.2 mph - N/A   Clear
5:40 AM 53.6 °F 35.6 °F 51% 29.99 in 10.0 mi NW 5.8 mph - N/A   Clear
6:00 AM 50.0 °F 33.8 °F 54% 29.99 in 10.0 mi NNW 9.2 mph - N/A   Clear
6:20 AM 50.0 °F 33.8 °F 54% 29.99 in 10.0 mi NW 8.1 mph - N/A   Clear
6:40 AM 53.6 °F 35.6 °F 51% 29.99 in 10.0 mi NW 3.5 mph - N/A   Clear
7:00 AM 57.2 °F 35.6 °F 44% 30.00 in 10.0 mi Calm Calm - N/A   Clear
7:20 AM 57.2 °F 35.6 °F 44% 30.00 in 10.0 mi North 4.6 mph - N/A   Clear
7:40 AM 59.0 °F 35.6 °F 42% 30.01 in 10.0 mi North 4.6 mph - N/A   Clear
8:00 AM 60.8 °F 33.8 °F 36% 30.01 in 10.0 mi East 3.5 mph - N/A   Clear
8:20 AM 60.8 °F 33.8 °F 36% 30.02 in 10.0 mi East 5.8 mph - N/A   Clear
8:40 AM 60.8 °F 33.8 °F 36% 30.02 in 10.0 mi East 4.6 mph - N/A   Clear
9:00 AM 62.6 °F 35.6 °F 37% 30.02 in 10.0 mi East 6.9 mph - N/A   Clear
9:20 AM 62.6 °F 35.6 °F 37% 30.02 in 10.0 mi ESE 6.9 mph - N/A   Clear
9:40 AM 64.4 °F 33.8 °F 32% 30.02 in 10.0 mi Calm Calm - N/A   Clear
10:00 AM 64.4 °F 32.0 °F 30% 30.03 in 10.0 mi SSE 5.8 mph - N/A   Clear
10:20 AM 66.2 °F 32.0 °F 28% 30.02 in 10.0 mi SE 4.6 mph - N/A   Clear
10:40 AM 66.2 °F 32.0 °F 28% 30.03 in 10.0 mi ESE 5.8 mph - N/A   Clear
11:00 AM - - N/A% - - North - - N/A   Unknown
11:20 AM 71.6 °F 30.2 °F 22% - - Calm Calm - N/A   Unknown
11:40 AM 69.8 °F 30.2 °F 23% - - Calm Calm 11.5 mph N/A   Unknown
12:00 PM 71.6 °F 30.2 °F 22% - - Calm Calm - N/A   Unknown
12:20 PM 71.6 °F 32.0 °F 23% 30.01 in 10.0 mi Calm Calm - N/A   Unknown
12:40 PM 71.6 °F 32.0 °F 23% 30.00 in 10.0 mi East 6.9 mph - N/A   Clear
1:00 PM 71.6 °F 30.2 °F 22% 29.99 in 10.0 mi Variable 4.6 mph - N/A   Clear
1:20 PM 73.4 °F 30.2 °F 20% 29.98 in 10.0 mi Variable 3.5 mph - N/A   Unknown
1:40 PM 75.2 °F 30.2 °F 19% 29.98 in 10.0 mi Variable 6.9 mph - N/A   Clear
2:00 PM 75.2 °F 30.2 °F 19% 29.97 in 10.0 mi Calm Calm - N/A   Clear
2:20 PM 77.0 °F 26.6 °F 16% 29.96 in 10.0 mi Variable 6.9 mph 13.8 mph N/A   Clear
2:40 PM 77.0 °F 26.6 °F 16% 29.95 in 10.0 mi South 10.4 mph - N/A   Clear
3:00 PM 78.8 °F 26.6 °F 15% 29.95 in 10.0 mi SSW 11.5 mph - N/A   Clear
3:20 PM 78.8 °F 33.8 °F 20% 29.94 in 10.0 mi Variable 4.6 mph 13.8 mph N/A   Clear
3:40 PM 78.8 °F 33.8 °F 20% 29.93 in 10.0 mi WNW 13.8 mph 20.7 mph N/A   Clear
4:00 PM 78.8 °F 37.4 °F 23% 29.92 in 10.0 mi West 16.1 mph 21.9 mph N/A   Clear
4:20 PM 78.8 °F 35.6 °F 21% 29.92 in 10.0 mi West 17.3 mph - N/A   Clear
4:40 PM 78.8 °F 35.6 °F 21% 29.92 in 10.0 mi West 17.3 mph - N/A   Clear
5:00 PM 77.0 °F 35.6 °F 22% 29.92 in 10.0 mi WNW 18.4 mph - N/A   Clear
5:20 PM 77.0 °F 35.6 °F 22% 29.91 in 10.0 mi WNW 15.0 mph - N/A   Unknown
5:40 PM 77.0 °F 35.6 °F 22% 29.91 in 10.0 mi WNW 18.4 mph - N/A   Clear
6:00 PM 75.2 °F 33.8 °F 22% 29.91 in 10.0 mi WNW 20.7 mph - N/A   Clear
6:20 PM 73.4 °F 33.8 °F 23% 29.91 in 10.0 mi WNW 15.0 mph 25.3 mph N/A   Clear
6:40 PM 71.6 °F 33.8 °F 25% 29.91 in 10.0 mi WNW 21.9 mph - N/A   Clear
7:00 PM 71.6 °F 32.0 °F 23% 29.91 in 10.0 mi WNW 20.7 mph 28.8 mph N/A   Clear
7:20 PM 69.8 °F 30.2 °F 23% 29.92 in 10.0 mi West 19.6 mph 26.5 mph N/A   Clear
7:40 PM 68.0 °F 30.2 °F 24% 29.92 in 10.0 mi West 18.4 mph 26.5 mph N/A   Clear
8:00 PM 66.2 °F 28.4 °F 24% 29.92 in 10.0 mi WNW 17.3 mph - N/A   Clear
8:20 PM 66.2 °F 30.2 °F 26% 29.93 in 10.0 mi West 17.3 mph - N/A   Clear
8:40 PM 64.4 °F 30.2 °F 28% 29.94 in 10.0 mi West 13.8 mph 20.7 mph N/A   Clear
9:00 PM 64.4 °F 30.2 °F 28% 29.94 in 10.0 mi West 13.8 mph - N/A   Clear
9:20 PM 64.4 °F 28.4 °F 26% 29.95 in 10.0 mi West 12.7 mph 19.6 mph N/A   Clear
9:40 PM 64.4 °F 30.2 °F 28% 29.95 in 10.0 mi WNW 12.7 mph 19.6 mph N/A   Clear
10:00 PM 64.4 °F 30.2 °F 28% 29.95 in 10.0 mi WNW 12.7 mph 19.6 mph N/A   Clear
10:20 PM 62.6 °F 28.4 °F 27% 29.96 in 10.0 mi WNW 12.7 mph 18.4 mph N/A   Clear
10:40 PM 62.6 °F 28.4 °F 27% 29.96 in 10.0 mi West 9.2 mph - N/A   Clear
11:00 PM 62.6 °F 28.4 °F 27% 29.95 in 10.0 mi WNW 15.0 mph - N/A   Clear
11:20 PM 62.6 °F 30.2 °F 30% 29.96 in 10.0 mi NW 13.8 mph - N/A   Partly Cloudy
11:40 PM 62.6 °F 28.4 °F 27% 29.96 in 10.0 mi NW 12.7 mph - N/A   Partly Cloudy